Location: Godiavel Galaoual
(15.2485°N, 12.6604°W)
Time: 12:40:50
(UTC+00:00)

LightSail 2 - Pass Details

Date: 07 June 2020
Orbit: 692 x 720 km, 24.0° (Epoch: 14 July)

Event Time Altitude Azimuth Distance (km) Brightness Sun altitude
Rises 20:42:18 0° 241° (WSW) 3,044 8.8 -18.5°
Reaches altitude 10° 20:44:44 10° 237° (WSW) 2,128 7.9 -19.0°
Maximum altitude 20:49:40 61° 158° (SSE) 778 5.0 -20.0°
Enters shadow 20:51:02 44° 101° (E) 950 5.3 -20.3°
